Location: Peterborough
(44.3091°N, 78.3197°W)
Time: 18:21:33
(UTC-04:00)

Transit 2A Rocket - Visible Passes

Search period start: 25 September 2023 00:00
Search period end: 05 October 2023 00:00
Orbit: 590 x 906 km, 66.7° (Epoch: 25 September)

Date Brightness Start Highest point End Pass type
(mag) Time Alt. Az. Time Alt. Az. Time Alt. Az.
27 Sep 7.4 22:20:29 10° N 22:20:51 11° N 22:20:51 11° N visible
28 Sep 7.2 21:37:56 10° N 21:38:21 11° NNE 21:38:21 11° NNE visible
29 Sep 7.5 22:35:19 10° NNW 22:35:41 12° NNW 22:35:41 12° NNW visible
30 Sep 7.1 21:52:10 10° N 21:53:12 15° N 21:53:12 15° N visible
01 Oct 6.9 21:09:19 10° N 21:10:46 14° NNE 21:10:46 14° NNE visible
02 Oct 7.1 22:07:10 10° NNW 22:08:10 16° NNW 22:08:10 16° NNW visible
03 Oct 6.5 21:23:55 10° NNW 21:25:46 20° N 21:25:46 20° N visible
04 Oct 6.4 20:40:53 10° N 20:43:24 18° NNE 20:43:24 18° NNE visible
04 Oct 7.4 22:22:35 10° NW 22:23:14 14° NW 22:23:14 14° NW visible
